User: anonymous   Login
Location: Unspecified
(0.0000°N, 0.0000°E)
Time: 23:23:48
(UTC+00:00)
Language:

AMOS 1 - Orbit

View from above orbital plane
View from above orbital plane
View from above satellite
View from above satellite

Ground track
Ground track

The orbit data is extracted from the following two-line orbital elements,

1 23865U 96030B   18055.24179788 -.00000161  00000-0  00000+0 0  9995
2 23865   7.4835  52.5809 0005910 164.1793  13.0437  0.97118557 79094
Epoch (UTC): 24 February 2018 05:48:11
Eccentricity: 0.0005910
inclination: 7.4835°
perigee height: 36668 km
apogee height: 36719 km
right ascension of ascending node: 52.5809°
argument of perigee: 164.1793°
revolutions per day: 0.97118557
mean anomaly at epoch: 13.0437°
orbit number at epoch: 7909

The dashed part of the orbit path shows where the satellite is in the earth's shadow,  

DLR